Location: Fayetteville
(35.0530°N, 78.8790°W)
Time: 16:50:24
(UTC-04:00)

ISS - Visible Passes

Search period start: 26 March 2017 00:00
Search period end: 05 April 2017 00:00
Orbit: 399 x 409 km, 51.6° (Epoch: 27 March)

Date Brightness Start Highest point End Pass type
(mag) Time Alt. Az. Time Alt. Az. Time Alt. Az.
26 Mar -3.2 21:15:27 10° WSW 21:18:25 55° WNW 21:18:25 55° WNW visible
27 Mar -3.9 20:23:06 10° SW 20:26:17 63° SE 20:29:20 11° NE visible
27 Mar -0.5 22:01:06 10° WNW 22:02:03 13° NW 22:02:03 13° NW visible
28 Mar -1.6 21:07:44 10° W 21:10:27 24° NW 21:12:40 13° NNE visible
29 Mar -2.7 20:14:49 10° WSW 20:17:56 44° NW 20:21:05 10° NE visible
30 Mar -0.8 21:00:49 10° NW 21:02:22 13° NNW 21:03:55 10° N visible
31 Mar -1.2 20:07:13 10° W 20:09:42 20° NNW 20:12:12 10° NNE visible
02 Apr -0.8 20:00:34 10° NW 20:01:34 11° NNW 20:02:34 10° N visible
